Home   Weather   Bangui   Past weeks

Flag for Central African Republic Past Weather in Bangui, Central African Republic — Yesterday and Last 2 Weeks

Now
73 °F

Thunderstorms. Passing clouds.


Feels Like: 68 °F
Forecast: 71 / 84 °F
Wind: 3 mph from North

Location: Bangui Airport

Current Time: Oct 1, 2016 at 9:50:06 PM

Latest Report: Oct 1, 2016 at 9:00 PM


Visibility: 4 mi

Pressure: 29.89 "Hg

Humidity: 100%

Dew Point: 73 °F

Location of BanguiLocation

Past Weather in Bangui — Graph

°F

Bangui Temperature Yesterday

Maximum temperature yesterday: 93 °F (at 2:00 PM)
Minimum temperature yesterday: 70 °F (at 5:00 AM)
Average temperature yesterday: 81 °F

High & Low Weather Summary for the Past Weeks

 TemperatureHumidityPressure
High95 °F (Sep 24, 2:00 PM)100% (Sep 16, 10:00 PM)30.04 "Hg (Sep 16, 10:00 PM)
Low70 °F (Sep 18, 4:00 AM)46% (Sep 18, 2:00 PM)29.65 "Hg (Oct 1, 3:00 PM)
Average79 °F84%29.88 "Hg
* Reported Sep 16 8:00 PM — Oct 1 8:00 PM, Bangui, Weather by CustomWeather, © 2016

Note: Actual official high and low records may vary slightly from our data, if they occured in-between our weather recording intervals... More about our weather records

Advertising

Bangui Weather History for the Previous 24 Hours

Scroll right to see more
 ConditionsComfort  
Time TempWeatherWind HumidityBarometerVisibility
8:00 PM
Sat, Oct 1
73 °FThunderstorms. Passing clouds.7 mph100%29.86 "Hg4 mi
7:00 PM77 °FStrong thunderstorms. Passing clouds.12 mph89%29.80 "Hg4 mi
6:00 PM77 °FThunderstorms. Passing clouds.12 mph83%29.74 "HgN/A
5:00 PM82 °FPartly sunny.14 mph70%29.71 "HgN/A
4:00 PM93 °FPartly sunny.5 mph56%29.65 "HgN/A
3:00 PM93 °FPartly sunny.7 mph56%29.65 "HgN/A
2:00 PM95 °FPartly sunny.7 mph53%29.68 "HgN/A
1:00 PM91 °FScattered clouds.7 mph59%29.74 "HgN/A
12:00 PM91 °FScattered clouds.2 mph63%29.77 "HgN/A
11:00 AM90 °FPassing clouds.2 mph63%29.80 "HgN/A
10:00 AM86 °FPassing clouds.5 mph62%29.83 "HgN/A
9:00 AM84 °FSunny.7 mph70%29.83 "Hg10 mi
8:00 AM81 °FPassing clouds.6 mph79%29.83 "HgN/A
7:00 AM75 °FPassing clouds.5 mph94%29.83 "HgN/A
6:00 AM73 °FPassing clouds.2 mph94%29.80 "HgN/A
5:00 AM72 °FClear.2 mph100%29.80 "Hg10 mi
4:00 AM73 °FClear.3 mph94%29.80 "Hg10 mi
3:00 AM73 °FClear.2 mph100%29.80 "Hg10 mi
2:00 AM73 °FClear.No wind94%29.80 "Hg10 mi
1:00 AM73 °FClear.2 mph100%29.80 "Hg5 mi
12:00 AM75 °FClear.No wind94%29.80 "Hg5 mi
11:00 PM
Fri, Sep 30
75 °FClear.2 mph94%29.80 "Hg5 mi
10:00 PM77 °FClear.5 mph89%29.83 "Hg5 mi
9:00 PM79 °FClear.3 mph89%29.83 "Hg4 mi
Weather by CustomWeather, © 2016

See weather overviewHow to use our weather pages